Simultaneous Nadir Overpasses (SNOs) Predictions

Prediction of SNOs between FY3D and AQUA Satellite Orbit:

Table of predicted SNOs for the next 14.0 days since TLE Epoch: 8/9/2025
Index Date (FY3D) Time (FY3D) Lat,Lon (FY3D) SZA (FY3D ) Date (AQUA) Time (AQUA) Lat,Lon (AQUA) SZA (AQUA ) Distance(km) Time Diff (sec)
1 08/10/2025 18:46:24 79.51,-111.69 64.36 08/10/2025 18:46:40 79.51,-111.66 64.35 0.64 16
2 08/10/2025 19:36:58 -79.19, 58.32 116.04 08/10/2025 19:35:49 -79.20, 58.18 116.02 3.15 69
3 08/13/2025 04:17:05 79.49, 105.91 65.04 08/13/2025 04:17:26 79.49, 105.90 65.03 0.31 21
4 08/13/2025 05:07:44 -79.33, -85.41 115.16 08/13/2025 05:06:39 -79.32, -85.29 115.16 2.61 65
5 08/15/2025 13:47:49 79.53, -37.07 65.83 08/15/2025 13:48:14 79.52, -36.98 65.81 1.94 25
6 08/15/2025 14:38:24 -79.24, 132.70 114.53 08/15/2025 14:37:24 -79.24, 132.63 114.52 1.55 60
7 08/17/2025 23:18:32 79.54,-179.78 66.60 08/17/2025 23:19:01 79.54,-179.75 66.59 0.61 29
8 08/18/2025 00:09:07 -79.25, -10.00 113.76 08/18/2025 00:08:11 -79.26, -10.13 113.74 2.81 56
9 08/20/2025 08:49:15 79.55, 37.48 67.39 08/20/2025 08:49:47 79.54, 37.58 67.37 2.14 32
10 08/20/2025 09:39:50 -79.27,-152.72 112.97 08/20/2025 09:38:57 -79.27,-152.78 112.96 1.19 53
11 08/22/2025 18:19:57 79.54,-104.99 68.17 08/22/2025 18:20:32 79.54,-104.98 68.16 0.21 35



Historial Predications of SNOs between FY3D and AQUA
